一网星座-0671星 (ONEWEB-0671)

导读

ONEWEB-0671是英国OneWeb星座组网的低轨宽带通信卫星,于2023年3月9日成功发射。作为OneWeb第一代星座的组成部分,它运行在1200公里高度的近地轨道,工作于Ku波段,通过“渐进式调姿”技术避免对地静止卫星信号干扰。该卫星旨在为全球提供高速卫星互联网接入服务,助力OneWeb实现全球宽带覆盖的目标,也推动了全球低轨卫星互联网星座建设进程。

基本信息
目录编号:
55830
目录名称:
ONEWEB-0671
国际标识:
2023-029AL
轨道中心:
EARTH
卫星名称:
一网星座-0671星
卫星全名:
一网星座-0671星 (ONEWEB-0671)
卫星状态:
在轨 (已飞行1283 天)
发射日期:
2023-03-09 UTC
国别 :
英国 (GB)
星等 :
--
该卫星已列入 空间交会检测服务 Space Conjunction Data Service (SCDS) ,当前飞行风险评估等级: 无高风险
轨道信息
数据来源 国际轨道数据 AOE轨道数据
星历时间 2026-09-11T19:52:16+0800
15小时前
查看轨道信息
2026-09-10T22:00:00+0800
1天前
查看轨道信息
半长轴 7563.907km 7563.911km
偏心率 0.0002036 0.0001708
轨道倾角 87.912° 87.913°
近地点辐角 89.947° 62.531°
升交点赤经 287.781° 287.964°
平近点角 270.190° 290.489°
近地点 1184.229km 1184.482km
远地点 1187.311km 1187.066km
周期 109.114分钟 109.114分钟
每日圈数 13.197254 13.197242
详细信息
平衡模式:
三轴稳定
覆盖范围:
全球
运营商:
一网卫星公司
运营商所在国:
英国
制造商(研发单位):
一网卫星公司
制造商所在国:
英国
使用方式:
暂无
卫星简介
OneWeb卫星网络由648颗重约125公斤的微型卫星组成,运行在1200公里的轨道上。 每颗卫星都能够提供至少每秒8千兆位的吞吐量,以使用其高吞吐量的Ku频段有效载荷为家庭和移动平台提供互联网接入。该卫星仍在工作。
2D轨道图
3D轨道图
轨道高度分析图
轨道倾角分析图
轨道综合分析图
查看轨道综合分析图
与全量物体交会距离演化趋势
与全量物体交会风险概率演化趋势